CW4223 Weather Reports


time (UTC)temp
C
wind
direction
speed
KPH
gust
KPH
rain 1hr
cm
rain 24hr
cm
rain mn
cm
humidity
%
barometer
mb
20260505195305 30 217 14.5 37.0 0.00 0.00 0.00 65 1003.3
20260505195006 29 196 12.9 29.0 0.00 0.00 0.00 65 1004.1
20260505194804 30 216 14.5 24.1 0.00 0.00 0.00 64 1003.3
20260505194505 29 237 9.7 17.7 0.00 0.00 0.00 65 1004.1
20260505194304 30 206 12.9 22.5 0.00 0.00 0.00 65 1003.4
20260505193804 29 181 12.9 20.9 0.00 0.00 0.00 66 1003.3
20260505193504 28 195 12.9 25.7 0.00 0.00 0.00 67 1004.1
20260505193010 28 202 11.3 25.7 0.00 0.00 0.00 68 1004.1
20260505192804 29 224 14.5 32.2 0.00 0.00 0.00 67 1003.4
20260505192501 28 169 11.3 25.7 0.00 0.00 0.00 66 1004.1
20260505192305 29 211 14.5 22.5 0.00 0.00 0.00 67 1003.5
20260505192003 28 181 11.3 20.9 0.00 0.00 0.00 68 1004.2
20260505191804 28 211 12.9 25.7 0.00 0.00 0.00 68 1003.5
20260505191502 28 209 12.9 20.9 0.00 0.00 0.00 68 1004.1
20260505191001 28 228 14.5 20.9 0.00 0.00 0.00 67 1004.3
20260505190804 28 217 16.1 27.4 0.00 0.00 0.00 68 1003.6
20260505190304 28 210 16.1 32.2 0.00 0.00 0.00 68 1003.6
20260505190014 28 222 12.9 25.7 0.00 0.00 0.00 68 1004.2
20260505185505 28 213 11.3 24.1 0.00 0.00 0.00 68 1004.4
20260505185006 28 236 14.5 25.7 0.00 0.00 0.00 69 1004.5
20260505184006 27 240 14.5 22.5 0.00 0.00 0.00 68 1004.4
20260505183506 27 194 12.9 25.7 0.00 0.00 0.00 68 1004.5
20260505183004 27 222 14.5 29.0 0.00 0.00 0.00 69 1004.5
20260505182504 27 186 14.5 29.0 0.00 0.00 0.00 68 1004.4
20260505182306 27 205 19.3 29.0 0.00 0.00 0.00 68 1003.7
20260505182006 27 247 11.3 20.9 0.00 0.00 0.00 68 1004.5
20260505181804 28 209 16.1 27.4 0.00 0.00 0.00 68 1003.8
20260505181502 27 220 12.9 24.1 0.00 0.00 0.00 68 1004.6
20260505181004 27 221 12.9 24.1 0.00 0.00 0.00 68 1004.6
20260505180804 28 204 19.3 27.4 0.00 0.00 0.00 67 1003.9
20260505180505 27 196 12.9 22.5 0.00 0.00 0.00 67 1004.7
20260505180006 27 174 14.5 24.1 0.00 0.00 0.00 68 1004.7
20260505175503 27 187 14.5 27.4 0.00 0.00 0.00 68 1004.6
20260505175005 27 217 12.9 27.4 0.00 0.00 0.00 68 1004.7
20260505174503 27 174 14.5 25.7 0.00 0.00 0.00 68 1004.8
20260505174304 27 210 16.1 37.0 0.00 0.00 0.00 68 1004.1
20260505174005 27 178 12.9 25.7 0.00 0.00 0.00 68 1004.9
20260505173504 27 225 14.5 24.1 0.00 0.00 0.00 69 1004.8
20260505173304 27 203 16.1 29.0 0.00 0.00 0.00 69 1004.0
20260505173004 27 203 12.9 22.5 0.00 0.00 0.00 69 1004.8
20260505172007 27 229 16.1 29.0 0.00 0.00 0.00 71 1004.8
20260505171503 26 193 16.1 29.0 0.00 0.00 0.00 70 1004.9
20260505171304 27 223 20.9 32.2 0.00 0.00 0.00 70 1004.1
20260505171004 26 208 14.5 29.0 0.00 0.00 0.00 71 1004.8
20260505170501 26 202 14.5 29.0 0.00 0.00 0.00 71 1005.0
20260505165500 26 200 12.9 22.5 0.00 0.00 0.00 71 1004.8
20260505165306 27 211 19.3 27.4 0.00 0.00 0.00 71 1004.1
20260505165004 26 190 12.9 29.0 0.00 0.00 0.00 72 1004.7
20260505164504 26 167 14.5 30.6 0.00 0.00 0.00 72 1004.9
20260505164304 26 211 22.5 38.6 0.00 0.00 0.00 71 1004.0
20260505164003 26 200 14.5 30.6 0.00 0.00 0.00 71 1004.9
20260505163804 26 215 19.3 29.0 0.00 0.00 0.00 71 1004.0
20260505163501 26 213 16.1 30.6 0.00 0.00 0.00 72 1004.8
20260505163304 26 198 19.3 40.2 0.00 0.00 0.00 72 1004.0
20260505163005 26 181 14.5 30.6 0.00 0.00 0.00 72 1004.8
20260505162803 26 206 17.7 32.2 0.00 0.00 0.00 72 1004.0
20260505162306 26 194 16.1 29.0 0.00 0.00 0.00 72 1004.0
20260505162004 26 212 16.1 29.0 0.00 0.00 0.00 73 1004.6
20260505161804 26 205 22.5 33.8 0.00 0.00 0.00 72 1003.9
20260505161001 26 190 14.5 25.7 0.00 0.00 0.00 74 1004.5
20260505160804 26 203 17.7 25.7 0.00 0.00 0.00 73 1003.6
20260505160504 25 186 14.5 30.6 0.00 0.00 0.00 74 1004.5
20260505153003 24 196 14.5 25.7 0.00 0.00 0.00 77 1004.6
20260505152804 24 188 14.5 24.1 0.00 0.00 0.00 78 1004.1
20260505152500 24 189 14.5 29.0 0.00 0.00 0.00 78 1004.7
20260505152305 24 208 17.7 32.2 0.00 0.00 0.00 77 1004.1
20260505152007 24 226 16.1 30.6 0.00 0.00 0.00 78 1004.7
20260505151804 24 201 22.5 38.6 0.00 0.00 0.00 78 1003.9
20260505151500 23 190 12.9 30.6 0.00 0.00 0.00 78 1004.7
20260505151304 24 199 14.5 24.1 0.00 0.00 0.00 79 1003.9
20260505150505 23 217 14.5 29.0 0.00 0.00 0.00 79 1004.8
20260505150304 23 199 17.7 32.2 0.00 0.00 0.00 79 1004.2
20260505140503 22 178 12.9 29.0 0.00 0.00 0.00 82 1004.6
20260505140304 22 211 14.5 37.0 0.00 0.00 0.00 82 1003.8
20260505125001 21 201 12.9 20.9 0.00 0.00 0.00 84 1004.5
20260505124503 21 203 12.9 25.7 0.00 0.00 0.00 84 1004.3
20260505124003 21 234 14.5 25.7 0.00 0.00 0.00 84 1004.1
20260505123501 21 219 12.9 20.9 0.00 0.00 0.00 84 1004.1
20260505123005 21 202 11.3 22.5 0.00 0.00 0.00 84 1004.0
20260505122504 21 232 11.3 22.5 0.00 0.00 0.00 84 1004.1
20260505122001 21 210 11.3 24.1 0.00 0.00 0.00 84 1004.0
20260505121804 21 193 16.1 29.0 0.00 0.00 0.00 83 1003.4
20260505121502 21 239 11.3 24.1 0.00 0.00 0.00 84 1004.0
20260505121304 21 213 11.3 19.3 0.00 0.00 0.00 84 1003.3
20260505121004 21 186 11.3 17.7 0.00 0.00 0.00 83 1004.0
20260505120804 21 207 16.1 24.1 0.00 0.00 0.00 84 1003.3
20260505120506 21 169 11.3 24.1 0.00 0.00 0.00 83 1003.9
20260505120303 21 206 12.9 24.1 0.00 0.00 0.00 83 1003.4
20260505120007 21 221 11.3 24.1 0.00 0.00 0.00 83 1003.9
20260505115007 21 211 12.9 24.1 0.00 0.00 0.00 83 1003.9
20260505114001 21 211 12.9 25.7 0.00 0.00 0.00 83 1003.7
20260505113804 21 203 19.3 27.4 0.00 0.00 0.00 83 1002.9
20260505113500 21 195 12.9 22.5 0.00 0.00 0.00 83 1003.6
20260505113304 21 184 14.5 29.0 0.00 0.00 0.00 83 1002.9
20260505113005 21 224 14.5 24.1 0.00 0.00 0.00 83 1003.6
20260505112504 21 178 14.5 24.1 0.00 0.00 0.00 83 1003.5
20260505112305 21 200 19.3 32.2 0.00 0.00 0.00 83 1002.9
20260505112007 21 212 12.9 25.7 0.00 0.00 0.00 83 1003.5
20260505111504 21 175 14.5 27.4 0.00 0.00 0.00 83 1003.6
20260505111304 21 219 17.7 37.0 0.00 0.00 0.00 83 1002.9
20260505111001 21 194 14.5 27.4 0.00 0.00 0.00 83 1003.6
20260505110501 21 186 12.9 20.9 0.00 0.00 0.00 83 1003.6
20260505110304 21 190 12.9 25.7 0.00 0.00 0.00 83 1002.8
20260505102006 21 196 12.9 37.0 0.00 0.00 0.00 83 1003.8
20260505101804 21 197 19.3 48.3 0.00 0.00 0.00 83 1003.2
20260505101304 21 204 14.5 25.7 0.00 0.00 0.00 83 1003.2
20260505101002 21 209 14.5 25.7 0.00 0.00 0.00 83 1003.8
20260505100501 21 184 14.5 27.4 0.00 0.00 0.00 83 1003.7
20260505100001 21 196 12.9 27.4 0.00 0.00 0.00 83 1003.7
20260505095305 21 209 16.1 33.8 0.00 0.00 0.00 83 1003.3
20260505095007 21 190 14.5 32.2 0.00 0.00 0.00 83 1003.8
20260505094804 21 203 20.9 37.0 0.00 0.00 0.00 83 1003.1
20260505094004 21 212 14.5 27.4 0.00 0.00 0.00 83 1003.9
20260505093503 21 239 14.5 27.4 0.00 0.00 0.00 83 1003.9
20260505093304 21 200 16.1 27.4 0.00 0.00 0.00 83 1003.4
20260505093006 21 180 14.5 24.1 0.00 0.00 0.00 83 1004.0
20260505092501 21 201 14.5 27.4 0.00 0.00 0.00 83 1004.1
20260505092305 21 191 20.9 33.8 0.00 0.00 0.00 83 1003.5
20260505092003 21 198 14.5 27.4 0.00 0.00 0.00 83 1004.0
20260505091506 21 181 14.5 27.4 0.00 0.00 0.00 83 1004.0
20260505091003 21 174 14.5 27.4 0.00 0.00 0.00 83 1004.0
20260505090804 21 192 16.1 37.0 0.00 0.00 0.00 83 1003.4
20260505090502 21 201 14.5 27.4 0.00 0.00 0.00 83 1004.0
20260505090304 21 200 16.1 33.8 0.00 0.00 0.00 83 1003.4
20260505090007 21 211 16.1 27.4 0.00 0.00 0.00 83 1003.9
20260505085804 21 198 17.7 33.8 0.00 0.00 0.00 83 1003.4
20260505085500 21 184 14.5 27.4 0.00 0.00 0.00 83 1003.9
20260505085305 21 188 19.3 37.0 0.00 0.00 0.00 83 1003.4
20260505085005 21 184 16.1 33.8 0.00 0.00 0.00 83 1003.9
20260505084503 21 215 16.1 33.8 0.00 0.00 0.00 83 1004.0
20260505084303 21 206 20.9 38.6 0.00 0.00 0.00 83 1003.3
20260505084003 21 179 16.1 30.6 0.00 0.00 0.00 83 1003.9
20260505083804 21 191 19.3 33.8 0.00 0.00 0.00 83 1003.4
20260505082804 21 197 20.9 32.2 0.00 0.00 0.00 83 1003.4
20260505082025 21 215 16.1 32.2 0.00 0.00 0.00 83 1004.0
20260505081502 21 236 16.1 32.2 0.00 0.00 0.00 83 1004.0
20260505081304 21 199 20.9 33.8 0.00 0.00 0.00 83 1003.5
20260505081005 21 227 16.1 27.4 0.00 0.00 0.00 83 1004.0
20260505080804 21 195 22.5 37.0 0.00 0.00 0.00 82 1003.5
20260505080007 21 165 16.1 30.6 0.00 0.00 0.00 82 1004.2
20260505075804 21 206 20.9 32.2 0.00 0.00 0.00 82 1003.6
20260505075502 21 186 14.5 30.6 0.00 0.00 0.00 82 1004.3
20260505075304 21 202 16.1 33.8 0.00 0.00 0.00 82 1003.7
20260505075003 21 194 12.9 29.0 0.00 0.00 0.00 82 1004.3
20260505074804 21 206 14.5 38.6 0.00 0.00 0.00 82 1004.0
20260505074304 21 203 16.1 27.4 0.00 0.00 0.00 82 1004.0
20260505074003 21 198 12.9 25.7 0.00 0.00 0.00 82 1004.7
20260505073502 21 198 12.9 30.6 0.00 0.00 0.00 81 1004.7
20260505073304 21 198 14.5 25.7 0.00 0.00 0.00 81 1004.0
20260505073001 21 199 14.5 30.6 0.00 0.00 0.00 81 1004.8
20260505072503 21 185 16.1 29.0 0.00 0.00 0.00 81 1004.9
20260505072305 22 200 19.3 32.2 0.00 0.00 0.00 81 1004.1
20260505072004 21 213 16.1 29.0 0.00 0.00 0.00 81 1004.9
20260505071804 22 199 19.3 33.8 0.00 0.00 0.00 80 1004.2
20260505071504 21 169 14.5 29.0 0.00 0.00 0.00 80 1004.9
20260505071303 22 203 20.9 38.6 0.00 0.00 0.00 80 1004.3
20260505071000 21 165 16.1 29.0 0.00 0.00 0.00 80 1005.0
20260505070804 22 197 16.1 37.0 0.00 0.00 0.00 80 1004.3
20260505070459 22 185 16.1 29.0 0.00 0.00 0.00 80 1005.1
20260505070007 21 195 14.5 29.0 0.00 0.00 0.00 80 1005.1
20260505065004 21 185 12.9 27.4 0.00 0.00 0.00 80 1005.3
20260505064008 21 234 14.5 24.1 0.00 0.00 0.00 80 1005.3
20260505063804 22 194 14.5 29.0 0.00 0.00 0.00 79 1004.5
20260505063303 22 189 17.7 27.4 0.00 0.00 0.00 79 1004.5
20260505063004 21 209 14.5 30.6 0.00 0.00 0.00 79 1005.2
20260505062803 22 196 19.3 32.2 0.00 0.00 0.00 79 1004.5
20260505062502 21 209 14.5 30.6 0.00 0.00 0.00 79 1005.2
20260505062304 22 196 20.9 32.2 0.00 0.00 0.00 79 1004.4
20260505061502 21 207 12.9 22.5 0.00 0.00 0.00 79 1005.4
20260505061304 22 207 20.9 29.0 0.00 0.00 0.00 79 1004.6
20260505060504 21 156 12.9 22.5 0.00 0.00 0.00 78 1005.4
20260505060304 22 193 14.5 25.7 0.00 0.00 0.00 79 1004.9
20260505055804 22 190 17.7 37.0 0.00 0.00 0.00 78 1004.8
20260505055507 21 191 12.9 27.4 0.00 0.00 0.00 78 1005.5
20260505055000 21 217 12.9 20.9 0.00 0.00 0.00 78 1005.6
20260505054804 22 187 17.7 27.4 0.00 0.00 0.00 78 1004.9
20260505054502 21 208 12.9 20.9 0.00 0.00 0.00 78 1005.6
20260505054005 21 196 12.9 22.5 0.00 0.00 0.00 78 1005.6
20260505053502 22 169 12.9 25.7 0.00 0.00 0.00 77 1005.7
20260505053002 22 178 12.9 25.7 0.00 0.00 0.00 77 1005.8
20260505052804 22 204 17.7 32.2 0.00 0.00 0.00 77 1005.2
20260505052501 22 176 14.5 27.4 0.00 0.00 0.00 77 1005.7
20260505052304 22 186 16.1 32.2 0.00 0.00 0.00 77 1005.2
20260505052002 22 210 14.5 27.4 0.00 0.00 0.00 77 1005.7
20260505051803 22 197 19.3 32.2 0.00 0.00 0.00 77 1005.3
20260505051500 21 155 11.3 19.3 0.00 0.00 0.00 77 1005.9
20260505051304 22 184 12.9 25.7 0.00 0.00 0.00 77 1005.3
20260505051001 21 167 9.7 20.9 0.00 0.00 0.00 77 1005.9
20260505050459 21 163 9.7 19.3 0.00 0.00 0.00 77 1005.9
20260505050304 22 194 14.5 25.7 0.00 0.00 0.00 77 1005.2
20260505041506 22 206 11.3 19.3 0.00 0.00 0.00 76 1006.1
20260505041304 22 184 16.1 22.5 0.00 0.00 0.00 76 1005.4
20260505041005 22 174 9.7 17.7 0.00 0.00 0.00 76 1006.1
20260505040503 22 194 11.3 17.7 0.00 0.00 0.00 75 1006.2
20260505040008 22 177 9.7 17.7 0.00 0.00 0.00 75 1006.1
20260505035508 22 159 9.7 19.3 0.00 0.00 0.00 75 1006.0
20260505034503 22 190 9.7 14.5 0.00 0.00 0.00 74 1006.1
20260505034009 22 205 9.7 14.5 0.00 0.00 0.00 74 1006.0
20260505033804 22 179 11.3 19.3 0.00 0.00 0.00 74 1005.3
20260505033503 22 163 9.7 16.1 0.00 0.00 0.00 74 1006.1
20260505033304 22 169 11.3 20.9 0.00 0.00 0.00 73 1005.5
20260505033009 22 199 9.7 16.1 0.00 0.00 0.00 73 1006.1
20260505032803 22 185 12.9 22.5 0.00 0.00 0.00 73 1005.5
20260505032502 22 187 9.7 17.7 0.00 0.00 0.00 73 1006.2
20260505032304 22 181 11.3 22.5 0.00 0.00 0.00 73 1005.5
20260505032008 22 194 9.7 17.7 0.00 0.00 0.00 73 1006.2
20260505031304 22 182 11.3 22.5 0.00 0.00 0.00 73 1005.5
20260505031006 22 170 9.7 16.1 0.00 0.00 0.00 73 1006.2
20260505030509 22 197 8.0 16.1 0.00 0.00 0.00 73 1006.1
20260505030304 22 176 11.3 19.3 0.00 0.00 0.00 73 1005.5
20260505030010 22 191 9.7 17.7 0.00 0.00 0.00 73 1006.1
20260505025506 22 144 9.7 17.7 0.00 0.00 0.00 72 1006.2
20260505024804 22 179 11.3 22.5 0.00 0.00 0.00 73 1005.4
20260505024507 22 184 9.7 16.1 0.00 0.00 0.00 73 1006.2
20260505024304 22 185 11.3 19.3 0.00 0.00 0.00 73 1005.4
20260505024010 22 190 9.7 16.1 0.00 0.00 0.00 72 1006.1
20260505023507 22 186 9.7 16.1 0.00 0.00 0.00 72 1005.9
20260505023304 23 184 12.9 22.5 0.00 0.00 0.00 72 1005.1
20260505023005 22 157 9.7 17.7 0.00 0.00 0.00 72 1005.9
20260505022506 22 178 8.0 22.5 0.00 0.00 0.00 72 1005.8
20260505022003 22 200 9.7 22.5 0.00 0.00 0.00 71 1005.9
20260505021504 23 172 8.0 14.5 0.00 0.00 0.00 71 1005.9
20260505021304 23 171 9.7 19.3 0.00 0.00 0.00 70 1005.2
20260505021009 23 202 8.0 14.5 0.00 0.00 0.00 70 1005.9
20260505020804 23 185 9.7 16.1 0.00 0.00 0.00 70 1005.0
20260505020504 23 173 8.0 14.5 0.00 0.00 0.00 70 1005.9
20260505020304 23 192 11.3 20.9 0.00 0.00 0.00 69 1005.0
20260505020007 23 184 9.7 22.5 0.00 0.00 0.00 69 1005.8
20260505015804 23 187 9.7 22.5 0.00 0.00 0.00 69 1005.0
20260505015505 23 180 11.3 22.5 0.00 0.00 0.00 69 1005.9
20260505015304 23 199 16.1 25.7 0.00 0.00 0.00 68 1005.1
20260505014804 23 189 16.1 29.0 0.00 0.00 0.00 68 1005.1
20260505014304 23 204 16.1 27.4 0.00 0.00 0.00 68 1005.1
20260505013803 23 181 11.3 25.7 0.00 0.00 0.00 68 1005.1
20260505013005 23 210 12.9 25.7 0.00 0.00 0.00 67 1005.8
20260505012502 23 205 12.9 22.5 0.00 0.00 0.00 67 1005.8
20260505012007 23 192 11.3 22.5 0.00 0.00 0.00 67 1005.8
20260505011505 23 189 11.3 19.3 0.00 0.00 0.00 66 1005.8
20260505011304 24 178 11.3 24.1 0.00 0.00 0.00 66 1005.1
20260505011007 24 179 12.9 22.5 0.00 0.00 0.00 66 1005.8
20260505010505 24 189 12.9 22.5 0.00 0.00 0.00 66 1005.8
20260505010007 24 191 11.3 22.5 0.00 0.00 0.00 66 1005.7
20260505005804 24 182 14.5 24.1 0.00 0.00 0.00 65 1005.1
20260505005004 24 195 17.7 30.6 0.00 0.00 0.00 64 1005.8
20260505004804 25 196 19.3 32.2 0.00 0.00 0.00 64 1005.1
20260505004502 24 186 16.1 30.6 0.00 0.00 0.00 64 1005.8
20260505004304 25 195 22.5 37.0 0.00 0.00 0.00 64 1005.1
20260505003804 25 204 16.1 29.0 0.00 0.00 0.00 64 1005.1
20260505003501 25 184 16.1 32.2 0.00 0.00 0.00 64 1005.9
20260505003304 25 185 19.3 41.8 0.00 0.00 0.00 64 1005.1
20260505003002 25 176 16.1 32.2 0.00 0.00 0.00 64 1005.8
20260505002804 25 202 22.5 40.2 0.00 0.00 0.00 63 1005.1
20260505002505 25 198 16.1 33.8 0.00 0.00 0.00 63 1005.9
20260505002304 25 193 17.7 29.0 0.00 0.00 0.00 63 1005.2
20260505002005 25 182 17.7 32.2 0.00 0.00 0.00 63 1005.8
20260505001503 25 206 19.3 32.2 0.00 0.00 0.00 63 1006.0
20260505000505 25 183 16.1 29.0 0.00 0.00 0.00 62 1005.9
20260505000304 25 200 20.9 37.0 0.00 0.00 0.00 62 1005.5
20260505000004 25 209 17.7 40.2 0.00 0.00 0.00 62 1005.9
20260504235506 25 178 19.3 40.2 0.00 0.00 0.00 62 1006.0
20260504235304 25 187 25.7 49.9 0.00 0.00 0.00 62 1005.5
20260504235007 25 205 16.1 35.4 0.00 0.00 0.00 62 1006.1
20260504234502 25 204 12.9 27.4 0.00 0.00 0.00 62 1006.2
20260504234304 25 196 16.1 25.7 0.00 0.00 0.00 62 1005.5
20260504234011 25 225 14.5 30.6 0.00 0.00 0.00 62 1006.2
20260504233504 25 210 14.5 33.8 0.00 0.00 0.00 61 1006.1
20260504232804 25 202 20.9 37.0 0.00 0.00 0.00 61 1005.4
20260504232504 25 205 17.7 30.6 0.00 0.00 0.00 61 1006.1
20260504232008 25 192 16.1 30.6 0.00 0.00 0.00 60 1006.1
20260504231804 26 203 20.9 37.0 0.00 0.00 0.00 61 1005.6
20260504231502 25 242 14.5 33.8 0.00 0.00 0.00 61 1006.3
20260504231007 25 190 16.1 32.2 0.00 0.00 0.00 60 1006.4
20260504230804 26 194 19.3 40.2 0.00 0.00 0.00 60 1005.5
20260504230505 26 192 14.5 32.2 0.00 0.00 0.00 60 1006.2
20260504225804 26 180 19.3 41.8 0.00 0.00 0.00 60 1005.8
20260504225506 26 182 17.7 32.2 0.00 0.00 0.00 59 1006.5
20260504225304 26 194 22.5 40.2 0.00 0.00 0.00 60 1005.8
20260504225005 26 194 17.7 46.7 0.00 0.00 0.00 60 1006.5
20260504224804 26 197 29.0 46.7 0.00 0.00 0.00 59 1005.8
20260504224505 26 155 17.7 46.7 0.00 0.00 0.00 59 1006.5
20260504224303 26 190 19.3 37.0 0.00 0.00 0.00 59 1005.8
20260504224003 26 187 19.3 35.4 0.00 0.00 0.00 59 1006.6
20260504223804 26 183 25.7 41.8 0.00 0.00 0.00 59 1005.7
20260504223507 26 194 17.7 35.4 0.00 0.00 0.00 59 1006.5
20260504223003 26 159 16.1 32.2 0.00 0.00 0.00 59 1006.3
20260504222804 26 199 22.5 38.6 0.00 0.00 0.00 59 1005.7
20260504222503 26 174 17.7 43.5 0.00 0.00 0.00 58 1006.5
20260504222305 26 190 20.9 37.0 0.00 0.00 0.00 58 1005.8
20260504222004 26 203 17.7 43.5 0.00 0.00 0.00 58 1006.6
20260504221304 26 186 22.5 40.2 0.00 0.00 0.00 58 1006.0
20260504221007 26 194 19.3 30.6 0.00 0.00 0.00 59 1006.6
20260504220502 26 221 16.1 30.6 0.00 0.00 0.00 59 1006.8
20260504220304 26 199 22.5 38.6 0.00 0.00 0.00 58 1006.1
20260504220007 26 180 12.9 27.4 0.00 0.00 0.00 58 1006.8
20260504215503 26 180 14.5 27.4 0.00 0.00 0.00 60 1006.8
20260504215305 27 182 16.1 32.2 0.00 0.00 0.00 58 1006.2
20260504215003 26 159 16.1 27.4 0.00 0.00 0.00 57 1007.0
20260504214804 27 213 20.9 37.0 0.00 0.00 0.00 58 1006.4
20260504214502 26 192 17.7 30.6 0.00 0.00 0.00 58 1007.1
20260504214003 26 194 19.3 33.8 0.00 0.00 0.00 58 1007.2
20260504213803 26 197 25.7 38.6 0.00 0.00 0.00 57 1006.5
20260504213505 26 180 17.7 33.8 0.00 0.00 0.00 56 1007.1
20260504213005 26 217 16.1 32.2 0.00 0.00 0.00 57 1007.1
20260504212504 26 191 17.7 32.2 0.00 0.00 0.00 59 1007.3
20260504212304 26 199 20.9 32.2 0.00 0.00 0.00 57 1006.8
20260504212007 26 224 17.7 33.8 0.00 0.00 0.00 57 1007.5
20260504211804 26 191 25.7 41.8 0.00 0.00 0.00 57 1007.0
20260504211505 26 183 17.7 37.0 0.00 0.00 0.00 57 1007.5
20260504211003 26 218 19.3 37.0 0.00 0.00 0.00 56 1007.5
20260504210804 26 188 20.9 46.7 0.00 0.00 0.00 57 1007.0
20260504210004 26 203 19.3 33.8 0.00 0.00 0.00 56 1007.7
20260504205006 26 170 17.7 33.8 0.00 0.00 0.00 57 1008.0
20260504204507 26 164 16.1 27.4 0.00 0.00 0.00 56 1008.2
20260504204304 26 168 19.3 29.0 0.00 0.00 0.00 56 1007.7
20260504204004 26 173 17.7 37.0 0.00 0.00 0.00 56 1008.3
20260504203804 26 180 22.5 38.6 0.00 0.00 0.00 55 1007.7
20260504203505 26 200 17.7 37.0 0.00 0.00 0.00 54 1008.4
20260504203010 26 199 16.1 29.0 0.00 0.00 0.00 56 1008.4
20260504202804 26 198 19.3 25.7 0.00 0.00 0.00 54 1007.8
20260504202003 26 238 17.7 35.4 0.00 0.00 0.00 54 1008.7
20260504201804 26 187 27.4 49.9 0.00 0.00 0.00 54 1008.0
20260504201504 26 152 17.7 32.2 0.00 0.00 0.00 54 1008.8
20260504200505 26 219 17.7 32.2 0.00 0.00 0.00 54 1009.1